Location: Unspecified
(0.0000°N, 0.0000°E)
Time: 14:09:12
(UTC+00:00)

Explorer 11/Cluster Stage 4 - Pass Details

Date: 24 February 2024
Orbit: 465 x 1219 km, 28.8° (Epoch: 24 April)

Event Time Altitude Azimuth Distance (km) Brightness Sun altitude
Rises 19:34:26 0° 220° (SW) 3,458 10.7 -20.0°
Reaches altitude 10° 19:37:06 10° 210° (SSW) 2,640 9.8 -20.7°
Maximum altitude 19:42:53 33° 148° (SSE) 1,703 8.1 -22.1°
Enters shadow 19:44:36 29° 123° (ESE) 1,859 8.1 -22.5°
